This is the latest recevied weather packets stored in our database for station/object DG8SF-13. If no packets are shown the sender has not sent any weather packets the latest 10 day(s).
| Time | Temp. | Humidity | Pressure | Rain* | Wind** | Luminosity | Snow |
|---|---|---|---|---|---|---|---|
| 1777547708 | 14.44° C | 26% | 1025.6 hPa | 0 mm | - | - | - |
| 1777547396 | 15° C | 27% | 1025.7 hPa | 0 mm | - | - | - |
| 1777547083 | 15° C | 27% | 1025.6 hPa | 0 mm | - | - | - |
| 1777546779 | 14.44° C | 27% | 1025.7 hPa | 0 mm | - | - | - |
| 1777545835 | 14.44° C | 31% | 1025.6 hPa | 0 mm | - | - | - |
| 1777545211 | 13.89° C | 30% | 1025.8 hPa | 0 mm | - | - | - |
| 1777544902 | 13.33° C | 29% | 1025.9 hPa | 0 mm | - | - | - |
| 1777544589 | 13.33° C | 29% | 1025.9 hPa | 0 mm | - | - | - |
| 1777544277 | 13.89° C | 30% | 1025.9 hPa | 0 mm | - | - | - |
| 1777543965 | 13.33° C | 31% | 1026 hPa | 0 mm | - | - | - |
| 1777543651 | 13.33° C | 30% | 1026 hPa | 0 mm | - | - | - |
| 1777543029 | 12.78° C | 31% | 1026 hPa | 0 mm | - | - | - |
| 1777542405 | 13.33° C | 30% | 1026.1 hPa | 0 mm | - | - | - |
| 1777542092 | 13.33° C | 31% | 1026 hPa | 0 mm | - | - | - |
| 1777541781 | 12.78° C | 32% | 1026 hPa | 0 mm | - | - | - |
| 1777541468 | 12.22° C | 33% | 1026.1 hPa | 0 mm | - | - | - |
| 1777541157 | 12.22° C | 33% | 1026.2 hPa | 0 mm | - | - | - |
| 1777540844 | 12.22° C | 32% | 1026.2 hPa | 0 mm | - | - | - |
| 1777540533 | 11.67° C | 33% | 1026.2 hPa | 0 mm | - | - | - |
| 1777540221 | 11.67° C | 33% | 1026.2 hPa | 0 mm | - | - | - |
| 1777539910 | 11.67° C | 33% | 1026.1 hPa | 0 mm | - | - | - |
| 1777539596 | 11.11° C | 34% | 1026.1 hPa | 0 mm | - | - | - |
| 1777539286 | 11.11° C | 34% | 1026.3 hPa | 0 mm | - | - | - |
| 1777538971 | 11.11° C | 33% | 1026.3 hPa | 0 mm | - | - | - |
| 1777538347 | 11.11° C | 34% | 1026.3 hPa | 0 mm | - | - | - |
* Rain latest hour (hover to see other rain measurements)
** Current wind speed in m/s (hover to see current wind gust speed)